Regional Weather Roundup
Issued by NWS

Home | Current Version | Previous Version | Text Only | Print | Product List | Glossary On
Versions: 1 2 3 4 5 6 7 8 9 10 11 12 13 14 15 16 17 18 19 20 21 22 23 24 25 26 27 28 29 30 31 32 33 34 35 36 37 38 39 40 41 42 43 44 45 46 47 48 49 50
362
ASUS43 KDTX 201301
RWRMI
MICHIGAN HOURLY REGIONAL WEATHER ROUNDUP
NATIONAL WEATHER SERVICE DETROIT/PONTIAC MI
900 AM EDT WED SEP 20 2017

NOTE: "FAIR" INDICATES FEW OR NO CLOUDS BELOW 12,000 FEET WITH NO
SIGNIFICANT WEATHER AND/OR OBSTRUCTION TO VISIBILITY.

MIZ047>049-052>055-059>063-066>070-074>076-081>083-201400-
SOUTHEAST LOWER MICHIGAN

CITY           SKY/WX    TMP DP  RH WIND       PRES   REMARKS
ADRIAN         CLOUDY    67  66  97 CALM      30.03R FOG
ALMA           CLOUDY    67  66  96 NE5       30.01S FOG
ANN ARBOR      CLOUDY    68  68 100 S3        30.01S FOG
BAD AXE        MOSUNNY   67  66  97 S3        30.03R FOG
CARO           FOG       65  64  96 CALM      30.01S VSB<1/4
DETROIT CITY   CLOUDY    68  68 100 CALM      30.02R FOG
DETROIT        FOG       67  67 100 CALM      30.02S VSB 1
FLINT          FOG       67  66  97 S5        30.02R VSB 1/2
GROSSE ILE     MOSUNNY   69  67  93 W3        30.01S FOG
HILLSDALE      CLOUDY    66  63  88 CALM      30.03R FOG
HOWELL         CLOUDY    67  67  97 SE5       30.02R FOG

CITY           SKY/WX    TMP DP  RH WIND       PRES   REMARKS
JACKSON        PTSUNNY   68  64  87 S7        30.02R
LAMBERTVILLE   FOG       68  65  92 CALM      30.02R VSB 1
LANSING        CLOUDY    68  65  90 S6        30.01S FOG
LAPEER         FOG       66  66  98 SE3       30.02F VSB 1/4
MASON          PTSUNNY   69  67  93 E6        30.01R FOG
MONROE         CLOUDY    67  65  93 W3        30.02R FOG
MT. CLEMENS    FOG       67  67 100 CALM      30.01R VSB 1
PONTIAC        FOG       66  66 100 CALM      30.01S VSB 1/4
PORT HOPE        N/A     67  66  97 SE5       30.01R
PORT HURON     FOG       68  66  94 SE3       30.03R VSB 1
TRI CITIES     FOG       68  68 100 CALM      30.02R VSB 1
MIDLAND        CLOUDY    68  68 100 CALM      30.01R FOG
TROY           FOG       67  67  99 CALM      30.04R VSB 1
SAGINAW HB     CLOUDY    64  64 100 CALM      30.01R FOG
$$
MIZ043>046-050>051-056>058-064>065-071>073-077>080-201400-
SOUTHWEST LOWER MICHIGAN

CITY           SKY/WX    TMP DP  RH WIND       PRES   REMARKS
BATTLE CREEK   PTSUNNY   68  66  93 S6        30.01S
BENTON HARBOR  FOG       65  63  93 E6        29.97S VSB 1/4
BIG RAPIDS     CLOUDY    64  64  97 SE5       29.99S FOG
COLDWATER      CLOUDY    67  67 100 S3        30.01S FOG
FREMONT        CLOUDY    67  67 100 SE3       29.98R FOG
HOLLAND        PTSUNNY   68  65  90 S8        29.98S FOG
GRAND RAPIDS   CLOUDY    68  66  93 S3        29.99R
IONIA          CLOUDY    67  67  98 SE5       29.99S FOG
KALAMAZOO      CLOUDY    68  63  84 S3        29.99F
LUDINGTON      CLOUDY    65  64  97 E7        29.95S FOG
MARSHALL       SUNNY     67  66  99 S3        30.01R
MOUNT PLEASANT CLOUDY    67  66  96 CALM      30.00S FOG
MUSKEGON       FOG       66  65  96 SE9       29.97R VSB 1/4
SOUTH HAVEN    FOG       66  65  96 SE3       29.99R VSB 3/4
$$
MIZ016>042-201400-
NORTHERN LOWER MICHIGAN

CITY           SKY/WX    TMP DP  RH WIND       PRES   REMARKS
ALPENA         CLOUDY    67  67 100 CALM      30.04R FOG
BEAVER ISLAND  CLOUDY    64  63  97 E8        29.98S FOG
BELLAIRE       CLOUDY    64  62  95 CALM      29.98F
CADILLAC       CLOUDY    66  63  90 SE8       29.99S FOG
CHARLEVOIX     CLOUDY    64  64 100 SE5       30.01F
FRANKFORT      CLOUDY    66  65  99 SE6       29.96S FOG
GAYLORD        CLOUDY    63  61  93 SE5       30.02R FOG
GRAYLING       CLOUDY    63  62  95 E3        30.02S FOG
HARBOR SPRINGS CLOUDY    64  63  95 E5        29.99F FOG
HOUGHTON LAKE  FOG       65  64  97 CALM      30.02S VSB 3/4
MANISTEE       FOG       63  63 100 SE6       29.96R VSB 3/4
OSCODA         CLOUDY    68  67  98 CALM      30.02R FOG
PELLSTON       CLOUDY    65  63  93 SE6       30.01R
ROGERS CITY    FOG       64  64  98 SE5       30.03S VSB<1/4
TRAVERSE CITY  CLOUDY    67  63  87 SE5       29.96S
$$
MIZ007>008-015-201400-
EASTERN UPPER MICHIGAN

CITY           SKY/WX    TMP DP  RH WIND       PRES   REMARKS
KINROSS        FOG       63  63 100 E6        30.02R VSB 1/2
MACKINAC ISLAN CLOUDY    66  66 100 SE7       30.01S
NEWBERRY       CLOUDY    62  61  97 S9        29.98S FOG
S. S. MARIE    CLOUDY    65  61  87 E7        30.01S
MUNISING         N/A     63  63 100 S6G17     29.93F
$$
MIZ004>006-011>014-085-201400-
CENTRAL UPPER MICHIGAN

CITY           SKY/WX    TMP DP  RH WIND       PRES   REMARKS
MANISTIQUE     CLOUDY    63  57  81 S7        29.95F HAZE
MENOMINEE      CLOUDY    65  63  93 S9G18     29.92R FOG
$$
MIZ001>003-009>011-084-201400-
WESTERN UPPER MICHIGAN

CITY           SKY/WX    TMP DP  RH WIND       PRES   REMARKS
IRON MOUNTAIN  FOG       60  58  92 SE7       29.91R VSB<1/4
HOUGHTON       CLOUDY    60  57  89 NE3       29.85R
COPPER HARBOR    N/A     62  59  90 SW9G26    29.85R
IRONWOOD       CLOUDY    63  60  90 SE14G20   29.76F
$$

ABBREVIATIONS USED IN REMARKS
   TC - TEMPERATURE IN CELSIUS
  WCI - WIND CHILL INDEX
   HX - HEAT INDEX
  VSB - VISIBILITY





USA.gov is the U.S. government's official web portal to all federal, state and local government web resources and services.